• In Uzbekistan
  • List of Countries
  • For 7 days
  • Water Temperature
  • Satellite Maps
  • Weather Map
  • Weather Widgets
  • user-avatar
    Login

    Hourly Weather Szigethalom

    Today, 24 September, Sunday

    Time Temperature Precipitation Wind Pressure Humidity
    00:00 +12°C° 0 mm 2 mps 756 mmHg 86%
    01:00 +12°C° 0 mm 2 mps 756 mmHg 87%
    02:00 +12°C° 0 mm 2 mps 756 mmHg 88%
    03:00 +12°C° 0 mm 1 mps 756 mmHg 88%
    04:00 +12°C° 0 mm 1 mps 756 mmHg 89%
    05:00 +12°C° 0 mm 1 mps 756 mmHg 88%
    06:00 +12°C° 0 mm 1 mps 756 mmHg 87%
    07:00 +12°C° 0 mm 1 mps 756 mmHg 86%
    08:00 +14°C° 0 mm 1 mps 756 mmHg 80%
    09:00 +15°C° 0 mm 1 mps 757 mmHg 74%
    10:00 +16°C° 0 mm 1 mps 757 mmHg 68%
    11:00 +18°C° 0 mm 1 mps 757 mmHg 65%
    12:00 +19°C° 0 mm 1 mps 756 mmHg 62%
    13:00 +19°C° 0 mm 1 mps 756 mmHg 59%
    14:00 +19°C° 0 mm 1 mps 756 mmHg 59%
    15:00 +19°C° 0 mm 1 mps 756 mmHg 59%
    16:00 +19°C° 0 mm 1 mps 756 mmHg 58%
    17:00 +18°C° 0 mm 1 mps 756 mmHg 63%
    18:00 +16°C° 0 mm 1 mps 756 mmHg 69%
    19:00 +15°C° 0 mm 1 mps 756 mmHg 74%
    20:00 +14°C° 0 mm 1 mps 756 mmHg 76%
    21:00 +14°C° 0 mm 1 mps 757 mmHg 78%
    22:00 +12°C° 0 mm 0 mps 757 mmHg 79%
    23:00 +12°C° 0 mm 0 mps 757 mmHg 80%

    Tomorrow, 25 September, Monday

    Time Temperature Precipitation Wind Pressure Humidity
    00:00 +12°C° 0 mm 0 mps 757 mmHg 81%
    01:00 +13°C° 0 mm 1 mps 757 mmHg 82%
    02:00 +13°C° 0 mm 1 mps 757 mmHg 83%
    03:00 +12°C° 0 mm 1 mps 757 mmHg 84%
    04:00 +12°C° 0 mm 1 mps 757 mmHg 84%
    05:00 +13°C° 0 mm 1 mps 757 mmHg 83%
    06:00 +13°C° 0 mm 2 mps 757 mmHg 83%
    07:00 +13°C° 0 mm 2 mps 757 mmHg 82%
    08:00 +15°C° 0 mm 2 mps 757 mmHg 75%
    09:00 +16°C° 0 mm 2 mps 757 mmHg 68%
    10:00 +18°C° 0 mm 3 mps 758 mmHg 62%
    11:00 +19°C° 0 mm 3 mps 757 mmHg 58%
    12:00 +19°C° 0 mm 3 mps 757 mmHg 54%
    13:00 +20°C° 0 mm 3 mps 757 mmHg 51%
    14:00 +20°C° 0 mm 3 mps 757 mmHg 51%
    15:00 +20°C° 0 mm 3 mps 757 mmHg 51%
    16:00 +20°C° 0 mm 3 mps 757 mmHg 51%
    17:00 +19°C° 0 mm 2 mps 757 mmHg 55%
    18:00 +18°C° 0 mm 2 mps 757 mmHg 60%
    19:00 +16°C° 0 mm 2 mps 757 mmHg 65%
    20:00 +16°C° 0 mm 2 mps 757 mmHg 67%
    21:00 +16°C° 0 mm 2 mps 757 mmHg 68%
    22:00 +15°C° 0 mm 2 mps 758 mmHg 70%
    23:00 +15°C° 0.1 mm 2 mps 758 mmHg 72%

    Day after tomorrow, 26 September, Tuesday

    Time Temperature Precipitation Wind Pressure Humidity
    00:00 +15°C° 0.1 mm 2 mps 758 mmHg 73%
    01:00 +14°C° 0.1 mm 2 mps 757 mmHg 75%
    02:00 +14°C° 0.1 mm 2 mps 757 mmHg 76%
    03:00 +14°C° 0.1 mm 2 mps 757 mmHg 77%
    04:00 +14°C° 0.1 mm 2 mps 757 mmHg 77%
    05:00 +14°C° 0 mm 2 mps 758 mmHg 76%
    06:00 +13°C° 0 mm 3 mps 758 mmHg 74%
    07:00 +14°C° 0 mm 3 mps 758 mmHg 73%
    08:00 +17°C° 0 mm 3 mps 758 mmHg 66%
    09:00 +18°C° 0 mm 3 mps 758 mmHg 59%
    10:00 +20°C° 0 mm 3 mps 758 mmHg 53%
    11:00 +21°C° 0 mm 3 mps 758 mmHg 49%
    12:00 +24°C° 0 mm 3 mps 758 mmHg 46%
    13:00 +25°C° 0 mm 3 mps 758 mmHg 42%
    14:00 +25°C° 0 mm 3 mps 757 mmHg 43%
    15:00 +25°C° 0 mm 2 mps 757 mmHg 44%
    16:00 +25°C° 0 mm 2 mps 757 mmHg 45%
    17:00 +23°C° 0 mm 2 mps 757 mmHg 50%
    18:00 +20°C° 0 mm 2 mps 758 mmHg 55%
    19:00 +19°C° 0 mm 2 mps 758 mmHg 60%
    20:00 +18°C° 0 mm 2 mps 758 mmHg 62%
    21:00 +18°C° 0 mm 2 mps 758 mmHg 65%
    22:00 +17°C° 0 mm 2 mps 758 mmHg 68%
    23:00 +17°C° 0.1 mm 2 mps 758 mmHg 70%

    27 September, Wednesday

    Time Temperature Precipitation Wind Pressure Humidity
    00:00 +17°C° 0.1 mm 2 mps 758 mmHg 72%
    01:00 +16°C° 0.1 mm 2 mps 758 mmHg 74%
    02:00 +16°C° 0 mm 2 mps 758 mmHg 76%
    03:00 +16°C° 0 mm 2 mps 758 mmHg 77%
    04:00 +15°C° 0 mm 2 mps 759 mmHg 78%
    05:00 +15°C° 0 mm 2 mps 759 mmHg 77%
    06:00 +16°C° 0 mm 2 mps 759 mmHg 76%
    07:00 +16°C° 0 mm 2 mps 759 mmHg 75%
    08:00 +18°C° 0 mm 2 mps 760 mmHg 68%
    09:00 +19°C° 0 mm 2 mps 760 mmHg 61%
    10:00 +21°C° 0 mm 2 mps 760 mmHg 53%
    11:00 +23°C° 0 mm 2 mps 760 mmHg 50%
    12:00 +24°C° 0 mm 2 mps 760 mmHg 46%
    13:00 +25°C° 0 mm 2 mps 760 mmHg 42%
    14:00 +24°C° 0 mm 2 mps 760 mmHg 42%
    15:00 +24°C° 0 mm 2 mps 759 mmHg 42%
    16:00 +24°C° 0 mm 2 mps 759 mmHg 42%
    17:00 +23°C° 0 mm 2 mps 760 mmHg 44%
    18:00 +20°C° 0 mm 2 mps 760 mmHg 46%
    19:00 +18°C° 0 mm 2 mps 760 mmHg 48%
    20:00 +18°C° 0 mm 2 mps 760 mmHg 49%
    21:00 +17°C° 0 mm 2 mps 760 mmHg 50%
    22:00 +16°C° 0 mm 2 mps 760 mmHg 51%
    23:00 +16°C° 0 mm 2 mps 761 mmHg 53%

    28 September, Thursday

    Time Temperature Precipitation Wind Pressure Humidity
    00:00 +15°C° 0 mm 2 mps 761 mmHg 54%
    01:00 +15°C° 0 mm 2 mps 761 mmHg 56%
    02:00 +14°C° 0 mm 2 mps 761 mmHg 59%
    03:00 +14°C° 0 mm 2 mps 761 mmHg 61%
    04:00 +14°C° 0 mm 2 mps 761 mmHg 63%
    05:00 +14°C° 0 mm 2 mps 761 mmHg 64%
    06:00 +14°C° 0 mm 2 mps 761 mmHg 65%
    07:00 +14°C° 0 mm 2 mps 762 mmHg 65%
    08:00 +16°C° 0 mm 2 mps 762 mmHg 59%
    09:00 +18°C° 0 mm 2 mps 762 mmHg 53%
    10:00 +20°C° 0 mm 2 mps 762 mmHg 46%
    11:00 +21°C° 0 mm 2 mps 762 mmHg 43%
    12:00 +23°C° 0 mm 1 mps 762 mmHg 40%
    13:00 +24°C° 0 mm 1 mps 762 mmHg 37%
    14:00 +24°C° 0 mm 1 mps 761 mmHg 38%
    15:00 +24°C° 0 mm 2 mps 761 mmHg 38%
    16:00 +23°C° 0 mm 2 mps 761 mmHg 39%
    17:00 +21°C° 0 mm 2 mps 761 mmHg 43%
    18:00 +19°C° 0 mm 2 mps 761 mmHg 47%
    19:00 +18°C° 0 mm 2 mps 762 mmHg 51%
    20:00 +17°C° 0 mm 2 mps 762 mmHg 53%
    21:00 +17°C° 0 mm 2 mps 762 mmHg 55%
    22:00 +16°C° 0 mm 2 mps 762 mmHg 58%
    23:00 +16°C° 0 mm 2 mps 762 mmHg 59%

    29 September, Friday

    Time Temperature Precipitation Wind Pressure Humidity
    00:00 +15°C° 0 mm 2 mps 762 mmHg 61%
    01:00 +15°C° 0 mm 2 mps 762 mmHg 63%
    02:00 +14°C° 0 mm 2 mps 762 mmHg 64%
    03:00 +14°C° 0 mm 2 mps 762 mmHg 66%
    04:00 +13°C° 0 mm 2 mps 762 mmHg 68%
    05:00 +14°C° 0 mm 2 mps 762 mmHg 68%
    06:00 +14°C° 0 mm 2 mps 762 mmHg 68%
    07:00 +14°C° 0 mm 2 mps 763 mmHg 68%
    08:00 +15°C° 0 mm 2 mps 763 mmHg 61%
    09:00 +17°C° 0 mm 2 mps 763 mmHg 55%
    10:00 +19°C° 0 mm 2 mps 763 mmHg 48%
    11:00 +20°C° 0 mm 2 mps 762 mmHg 45%
    12:00 +20°C° 0 mm 2 mps 762 mmHg 42%
    13:00 +21°C° 0 mm 2 mps 762 mmHg 39%
    14:00 +21°C° 0 mm 2 mps 761 mmHg 39%
    15:00 +21°C° 0 mm 2 mps 761 mmHg 39%
    16:00 +21°C° 0 mm 2 mps 761 mmHg 39%
    17:00 +19°C° 0 mm 2 mps 761 mmHg 42%
    18:00 +18°C° 0 mm 2 mps 761 mmHg 46%
    19:00 +16°C° 0 mm 2 mps 761 mmHg 50%
    20:00 +16°C° 0 mm 2 mps 761 mmHg 52%
    21:00 +15°C° 0 mm 2 mps 761 mmHg 54%
    22:00 +14°C° 0 mm 1 mps 761 mmHg 56%
    23:00 +14°C° 0 mm 1 mps 760 mmHg 57%
    Show more